[[{"header":{"parameterUnit":"m.s-1","parameterCategory":1,"la1":30.2991,"la2":30.254,"lo1":-89.0895,"lo2":-89.0444,"dy":0.0017,"dx":0.0017,"nx":28,"ny":28,"refTime":"2026-01-29T09:00:00:Z","depth":0,"parameterNumber":2,"parameterNumberName":"U-component_of_WINDS"},"data":[0,0,0,0,0,0,0,0,0,0,0,0,0,0,0,0,0,0,0,0,0,0,0,0,0,0,0,0,0,0,0,0,0,0,0,0,0,0,0,0,0,0,0,0,0,0,0,0,0,0,0,0,0,0,0,0,0,0,2.0572,2.0573,0,2.0641,2.0641,2.0642,2.0613,2.0612,2.061,2.0609,2.0674,2.0678,2.0681,0,0,0,0,0,0,0,0,0,0,0,0,0,2.041,2.0413,2.0572,2.0573,2.0574,2.064,2.0641,2.0642,2.0614,2.0612,2.061,2.0608,2.0673,2.0677,2.0681,0,0,0,0,0,0,0,0,0,0,0,0,0,2.048,2.0414,2.0572,2.0567,2.0568,2.064,2.0641,2.0643,2.0614,2.0612,2.0609,2.0607,2.0672,2.0677,2.0682,2.0761,0,0,2.0697,2.0699,0,0,0,0,0,0,0,0,2.0476,2.0486,2.0567,2.0568,2.0568,2.0616,2.0608,2.0682,2.0615,2.0596,2.0609,2.0606,2.0657,2.0663,2.0681,2.0764,2.0767,2.0697,2.07,2.0702,2.0704,0,0,0,0,0,0,0,2.0471,2.0482,2.0599,2.0568,2.0569,2.056,2.0567,2.0622,2.0639,2.0598,2.0596,2.0605,2.0656,2.0676,2.0682,2.0768,2.0697,2.0701,2.0704,2.0706,2.0917,2.0919,0,0,0,0,0,0,2.0467,2.0479,2.0597,2.0601,2.0515,2.0565,2.0573,2.0603,2.0639,2.0642,2.0607,2.0603,2.0669,2.0676,2.0684,2.0777,2.0702,2.0707,2.071,2.0914,2.0918,2.092,0,0,0,0,0,0,2.0463,2.0478,2.0594,2.0539,2.0553,2.0571,2.0604,2.0606,2.0625,2.0645,2.0648,2.0624,2.0667,2.0677,2.0742,2.0779,2.0709,2.0713,2.0911,2.0915,2.0919,2.0966,0,0,0,0,0,0,2.0459,2.0477,2.0508,2.054,2.0557,2.0652,2.0607,2.0609,2.0635,2.063,2.0662,2.0665,2.0666,2.0735,2.0747,2.0785,2.0717,2.0908,2.0913,2.0918,2.0961,2.0971,2.0979,0,0,0,0,0,2.0453,2.0518,2.051,2.0524,2.0597,2.0654,2.0663,2.0665,2.0638,2.0668,2.0681,2.0664,2.0774,2.0742,2.0755,2.0795,2.0905,2.0912,2.0917,2.0957,2.0969,2.0979,0,0,0,0,0,0,2.0488,2.0522,2.0514,2.0591,2.062,2.0649,2.0688,2.0678,2.0714,2.0708,2.0707,2.0714,2.078,2.0794,2.0758,2.0872,2.0835,2.0844,2.0861,2.0872,2.0881,2.0875,2.0721,0,0,0,0,0,2.0506,2.0551,2.0578,2.0643,2.0659,2.0671,2.0696,2.0695,2.0724,2.0736,2.0753,2.0781,2.0821,2.0848,2.0887,2.0963,2.0968,2.0997,2.1007,2.1014,2.1021,2.106,2.1073,2.094,2.094,2.094,0,0,2.054,2.0565,2.0593,2.0651,2.0673,2.0718,2.0682,2.0731,2.0764,2.0743,2.0804,2.0818,2.0849,2.092,2.0951,2.0933,2.1059,2.1022,2.1028,2.103,2.1068,2.108,2.1091,2.0944,2.0943,2.0943,0,0,2.0627,2.0651,2.0708,2.0731,2.0766,2.0774,2.0787,2.0818,2.0827,2.0889,2.0873,2.0912,2.0982,2.1004,2.1025,2.1119,2.1104,2.1132,2.1179,2.1217,2.1228,2.1237,2.1268,2.128,2.1139,2.1139,2.1139,0,2.0665,2.0735,2.0737,2.0788,2.0813,2.0798,2.0853,2.0875,2.092,2.0937,2.0916,2.1004,2.1023,2.1097,2.112,2.1139,2.1152,2.1127,2.1226,2.1236,2.1244,2.1274,2.1286,2.1142,2.1142,2.1141,2.1141,0,2.0779,2.0827,2.0868,2.0913,2.0943,2.0996,2.1005,2.1034,2.103,2.104,2.1102,2.1125,2.1167,2.1185,2.1182,2.1259,2.1246,2.1226,2.1188,2.126,2.1287,2.1299,2.1146,2.1145,2.1144,2.1144,0,0,2.0888,2.0935,2.0949,2.0969,2.1006,2.1042,2.1094,2.1136,2.116,2.1192,2.1233,2.1293,2.1275,2.1298,2.1296,2.1331,2.1401,2.1306,2.1307,2.1321,2.1484,2.1497,2.151,2.1392,2.1394,2.1396,2.148,0,2.0975,2.1068,2.1071,2.1154,2.1197,2.1183,2.1227,2.1254,2.1264,2.13,2.1311,2.1353,2.1327,2.134,2.1374,2.1385,2.1433,2.1379,2.1428,2.1429,2.1418,2.1525,2.1539,2.1618,2.1492,2.1494,2.1495,0,2.1089,2.1126,2.1213,2.1243,2.1261,2.1301,2.1339,2.1376,2.1405,2.1409,2.1435,2.1429,2.1479,2.1442,2.151,2.1473,2.1493,2.1502,2.1505,2.1507,2.1465,2.1528,2.1643,2.1654,2.1512,2.1511,2.151,0,2.1157,2.1228,2.1288,2.1306,2.1343,2.1371,2.1387,2.1414,2.1439,2.1472,2.1488,2.1526,2.1547,2.1576,2.1579,2.1552,2.1646,2.161,2.165,2.1649,2.1668,2.1666,2.1786,2.1686,2.1685,2.1685,2.1685,0,2.1252,2.1306,2.1319,2.1356,2.1415,2.1418,2.1475,2.1489,2.1513,2.1551,2.1542,2.1577,2.1581,2.1617,2.162,2.1674,2.1684,2.1688,2.1687,2.1687,2.1686,2.1698,2.1692,2.1688,2.1688,2.1687,2.1687,0,2.1336,2.1348,2.1413,2.1443,2.1452,2.1494,2.1518,2.1553,2.1562,2.161,2.1622,2.1636,2.1678,2.1685,2.1734,2.1736,2.18,2.1796,2.1791,2.1789,2.1828,2.1823,2.1957,2.1973,2.1865,2.1866,2.1867,0,2.1395,2.1436,2.1471,2.1496,2.1515,2.1556,2.1581,2.1586,2.1612,2.1648,2.1678,2.1719,2.1752,2.182,2.1833,2.187,2.1864,2.1909,2.187,2.1868,2.1862,2.1858,2.1861,2.1915,2.1917,2.1918,2.1918,0,2.1498,2.1501,2.1539,2.1579,2.161,2.1642,2.1671,2.1692,2.17,2.173,2.1774,2.18,2.185,2.189,2.1927,2.1941,2.193,2.1931,2.1942,2.194,2.1935,2.1936,2.1808,2.1927,2.1926,2.1926,2.1925,2.1925,2.1569,2.1604,2.1634,2.1676,2.1699,2.1727,2.176,2.1774,2.1811,2.1853,2.1854,2.19,2.1927,2.1975,2.1993,2.2028,2.2013,2.203,2.2033,2.2036,2.2039,2.1932,2.2035,2.2035,2.2035,2.2034,2.2034,0,2.1668,2.1687,2.1726,2.1768,2.1801,2.179,2.1822,2.1849,2.1891,2.1918,2.1951,2.2,2.2039,2.2056,2.2093,2.2118,2.2114,2.2128,2.2124,2.2128,2.2051,2.2037,2.213,2.213,2.213,2.213,2.213,2.213,2.1724,2.1781,2.1789,2.1857,2.1875,2.1922,2.1941,2.1965,2.1986,2.2042,2.2075,2.2086,2.2108,2.2147,2.2182,2.2186,2.2199,2.2214,2.2216,2.2143,2.2133,2.2124,2.211,2.2218,2.2218,2.2289,2.2289,2.229]},{"header":{"parameterUnit":"m.s-1","parameterCategory":1,"la1":30.2991,"la2":30.254,"lo1":-89.0895,"lo2":-89.0444,"dy":0.0017,"dx":0.0017,"nx":28,"ny":28,"refTime":"2026-01-29T09:00:00:Z","depth":0,"parameterNumber":3,"parameterNumberName":"V-component_of_WINDS"},"data":[0,0,0,0,0,0,0,0,0,0,0,0,0,0,0,0,0,0,0,0,0,0,0,0,0,0,0,0,0,0,0,0,0,0,0,0,0,0,0,0,0,0,0,0,0,0,0,0,0,0,0,0,0,0,0,0,0,0,2.2923,2.2925,0,2.3086,2.3088,2.309,2.3109,2.3107,2.3106,2.3104,2.3268,2.3273,2.3279,0,0,0,0,0,0,0,0,0,0,0,0,0,2.2624,2.263,2.2923,2.2925,2.2927,2.3086,2.3088,2.309,2.3109,2.3107,2.3105,2.3104,2.3266,2.3273,2.328,0,0,0,0,0,0,0,0,0,0,0,0,0,2.2767,2.2632,2.2923,2.2956,2.2961,2.3085,2.3088,2.3091,2.311,2.3107,2.3105,2.3103,2.3263,2.3272,2.3281,2.3383,0,0,2.3307,2.3311,0,0,0,0,0,0,0,0,2.2759,2.2778,2.2949,2.2954,2.2959,2.3075,2.3043,2.3189,2.311,2.3053,2.3104,2.3101,2.3205,2.3219,2.3254,2.339,2.3397,2.3308,2.3313,2.3317,2.332,0,0,0,0,0,0,0,2.2749,2.2771,2.2988,2.2951,2.2958,2.2961,2.2979,2.307,2.314,2.3058,2.306,2.3079,2.3207,2.3246,2.3258,2.34,2.3308,2.3316,2.3321,2.3324,2.3625,2.3628,0,0,0,0,0,0,2.2734,2.2763,2.2982,2.2992,2.2851,2.2969,2.2988,2.304,2.314,2.3152,2.3081,2.3079,2.3232,2.3248,2.3264,2.3389,2.3317,2.3325,2.333,2.3622,2.3626,2.3629,0,0,0,0,0,0,2.2727,2.2753,2.2976,2.2878,2.2907,2.2976,2.3034,2.3045,2.3083,2.3157,2.3169,2.3107,2.3231,2.3252,2.3353,2.3395,2.3329,2.3337,2.3619,2.3623,2.3627,2.364,0,0,0,0,0,0,2.2719,2.2751,2.2792,2.2879,2.2912,2.3063,2.3037,2.305,2.3099,2.3098,2.3185,2.3197,2.323,2.334,2.3361,2.3406,2.3344,2.3616,2.3621,2.3626,2.3636,2.3644,2.3651,0,0,0,0,0,2.2708,2.2788,2.2794,2.282,2.2965,2.3066,2.3085,2.3122,2.3102,2.3143,2.319,2.3194,2.3387,2.335,2.3375,2.3422,2.3613,2.362,2.3625,2.3633,2.3643,2.3651,0,0,0,0,0,0,2.2704,2.2801,2.2807,2.2919,2.2984,2.3069,2.3122,2.3132,2.3203,2.32,2.3242,2.3262,2.336,2.3401,2.3359,2.3525,2.3498,2.3509,2.3495,2.3505,2.3512,2.35,2.3351,0,0,0,0,0,2.2716,2.2791,2.2871,2.2962,2.2994,2.3052,2.3098,2.3121,2.319,2.3217,2.3272,2.3337,2.3412,2.3461,2.3534,2.3642,2.366,2.3687,2.3694,2.37,2.3709,2.3767,2.378,2.3649,2.3649,2.3649,0,0,2.2741,2.2804,2.2848,2.2962,2.3016,2.3091,2.3075,2.3156,2.3212,2.3229,2.3328,2.337,2.3445,2.355,2.3599,2.3587,2.3749,2.3708,2.3711,2.3718,2.3775,2.3787,2.3798,2.3653,2.3652,2.3652,0,0,2.2827,2.2882,2.2963,2.3016,2.3097,2.3135,2.3154,2.3237,2.3266,2.3366,2.338,2.3446,2.3575,2.3628,2.3671,2.3774,2.378,2.3796,2.3835,2.3891,2.3902,2.3911,2.3947,2.3959,2.3805,2.3805,2.3805,0,2.2848,2.2964,2.3003,2.3083,2.3132,2.3151,2.3232,2.3282,2.3382,2.3414,2.34,2.3561,2.3613,2.373,2.3754,2.379,2.3812,2.3787,2.3897,2.3907,2.3916,2.3951,2.3964,2.3807,2.3807,2.3807,2.3806,0,2.2985,2.3065,2.312,2.3217,2.3272,2.3352,2.3402,2.3452,2.347,2.3509,2.3609,2.3672,2.3758,2.3787,2.3805,2.3906,2.3896,2.3889,2.3862,2.3929,2.3962,2.3976,2.3809,2.3808,2.3808,2.3808,0,0,2.3074,2.319,2.321,2.3253,2.3342,2.3404,2.3484,2.3568,2.361,2.3678,2.3745,2.3853,2.3846,2.3896,2.392,2.3969,2.4045,2.3956,2.3959,2.397,2.4158,2.4162,2.4177,2.405,2.4052,2.4054,2.4151,0,2.3169,2.3314,2.335,2.3473,2.3546,2.3563,2.3633,2.3694,2.3732,2.3798,2.3839,2.3914,2.3901,2.393,2.398,2.4025,2.4083,2.4019,2.4111,2.4114,2.4092,2.4194,2.42,2.4288,2.4164,2.4167,2.4168,0,2.33,2.3371,2.3501,2.3579,2.3611,2.3673,2.3752,2.3816,2.3884,2.3908,2.3963,2.3981,2.4063,2.4032,2.4144,2.41,2.4139,2.4167,2.4171,2.4181,2.4145,2.4206,2.4318,2.433,2.4189,2.4187,2.4186,0,2.3351,2.3478,2.3572,2.3609,2.3703,2.3745,2.3786,2.3853,2.3901,2.3969,2.4,2.4077,2.4119,2.4177,2.4215,2.4189,2.4324,2.4296,2.4345,2.4344,2.4373,2.437,2.4491,2.4398,2.4398,2.4398,2.4398,0,2.3453,2.3532,2.3596,2.3654,2.3741,2.3781,2.3866,2.3907,2.3966,2.4031,2.405,2.411,2.4157,2.4223,2.4253,2.4341,2.436,2.438,2.4387,2.4378,2.4375,2.4405,2.4399,2.4402,2.4401,2.44,2.4399,0,2.3525,2.3571,2.3675,2.3754,2.3776,2.3837,2.3905,2.396,2.3998,2.4079,2.41,2.4159,2.4237,2.4281,2.4379,2.4399,2.4496,2.4501,2.4474,2.4477,2.4522,2.4517,2.4666,2.4687,2.458,2.4581,2.4582,0,2.3588,2.3648,2.3734,2.3779,2.3821,2.3893,2.3942,2.3982,2.4032,2.4114,2.4159,2.4239,2.4305,2.4428,2.4479,2.4553,2.4559,2.4606,2.457,2.4559,2.4559,2.4554,2.456,2.4612,2.4613,2.4613,2.4614,0,2.3693,2.3712,2.3782,2.386,2.3917,2.398,2.4042,2.4077,2.4128,2.4182,2.4263,2.4314,2.4414,2.4492,2.457,2.461,2.462,2.4625,2.464,2.4631,2.4613,2.4623,2.449,2.4621,2.4621,2.462,2.462,2.4619,2.3762,2.3816,2.3884,2.3961,2.4012,2.4069,2.4125,2.4169,2.4237,2.4322,2.4341,2.4426,2.4491,2.4597,2.4639,2.4705,2.4696,2.4718,2.4723,2.4728,2.4729,2.4603,2.4719,2.4719,2.4719,2.4719,2.4718,0,2.3868,2.3912,2.3982,2.4068,2.4128,2.4132,2.4201,2.425,2.4324,2.4384,2.4449,2.454,2.4615,2.4671,2.4747,2.4789,2.4795,2.4807,2.4804,2.4813,2.4733,2.4712,2.4801,2.4801,2.4801,2.4801,2.4801,2.4801,2.393,2.4021,2.4048,2.4164,2.4208,2.4291,2.4329,2.4381,2.443,2.4531,2.4594,2.463,2.4688,2.4768,2.4837,2.4851,2.4878,2.4889,2.4904,2.4828,2.4819,2.4811,2.4791,2.4895,2.4895,2.4978,2.4979,2.498]}]]